THOR ABLESTAR DEB, 355

Orbit data source: Space-Track

THOR ABLESTAR DEB, 355 is space debris in LEO originally from a launch on Thu, 29 Jun 1961 UTC launched from the Air Force Eastern Test Range (AFETR). Debris objects in space refer to the collection of defunct objects orbiting the Earth. Examples of debris include non-operational satellites, rocket bodies, and fragments generated from explosions, collisions, or faulty payload assembly.

Loading next visibility...
Identifier
355, 1961-015DV
Orbit
LEO
Country
Flag of USUS
Related business
Manufacturer
Unknown
Mission
Spacecraft
Bus & Motor
Unknown
Mass
Unknown
Launch date (UTC)
1961-06-29 (64 years ago)
Launch vehicle
Unknown
Launch site
Air Force Eastern Test Range (AFETR)
Object type
Payload
Rocket body
Debris
Shape & HBR
Unknown shape, 0.1 m
Radar Cross Section
Medium (>0.1 m² and <1 m²)

Expand to show TLE details & history
Last TLE update: 8 hours ago

TLE from 8 hours ago
0 THOR ABLESTAR DEB
1   355U 61015DV  25294.82950787  .00000802  00000-0  14866-2 0  9991
2   355  67.2253 168.0338 0238851  14.2593  63.4069 13.33852434117238
Epoch: 2025-10-21T19:54Z
TLE epoch observation values (Epoch: 2025-10-21T19:54:29.479Z)
Latitude
65.39747°
Longitude
-95.29244°
Altitude
1,065.934 km
Speed
7.363 km/s
True Right ascension
15h 35m 22s
True Declination
65° 16' 21"
Sunlit
Object was in daylight at epoch
Visualization orbit readout
Latitude
Unknown
Longitude
Unknown
Altitude
Unknown
Speed
Unknown
Apparent Right ascension
Unknown
Apparent Declination
Unknown
Sunlit
N/A
Visualization observer readout
Local Sidereal Time
22:47:04
Azimuth
Unknown
Elevation
Unknown
Doppler factor
Unknown
Orbital elements
Apogee altitude
1,310.005 km
Perigee altitude
951.309 km
Semi-major axis
7,508.794 km
Eccentricity
0.02389
Inclination
67.2253°
RAAN
168.0338°
Arg. of periapsis
14.2593°
True anomaly
65.88674°
Mean anomaly
63.4069°
Eccentric anomaly
64.64357°
Mean motion
3.33571 °/min
Orbital period
107.92 mins
BSTAR
0.0014866

Documentation

Showing up to 5 results
|